Regional Weather Roundup
Issued by NWS

Home | Current Version | Previous Version | Graphics & Text | Print | Product List | Glossary On
Versions: 1 2 3 4 5 6 7 8 9 10 11 12 13 14 15 16 17 18 19 20 21 22 23 24 25 26 27 28 29 30 31 32 33 34 35 36 37 38 39 40 41 42 43 44 45 46 47 48 49 50
000
ASUS43 KLSX 200357
RWRMO

WEATHER SUMMARY FOR MISSOURI
NATIONAL WEATHER SERVICE SPRINGFIELD MO
1100 PM CDT SAT AUG 19 2017

NOTE: "FAIR" INDICATES FEW OR NO CLOUDS BELOW 12,000 FEET WITH NO
       SIGNIFICANT WEATHER AND/OR OBSTRUCTIONS TO VISIBILITY.
       CURRENT SKY AND/OR WEATHER CONDITIONS ARE NOT AVAILABLE FOR
       CHILLICOTHE AND FARMINGTON.

MOZ001>031-035>038-043-044-053-054-200500-
...NORTHERN AND WESTERN MISSOURI...

CITY           SKY/WX    TMP DP  RH WIND       PRES   REMARKS
KANSAS CTY INT CLEAR     74  70  87 SE8       29.94R
LEE`S SUMMIT   CLEAR     79  74  84 S8        29.96R
ST JOSEPH      CLEAR     75  70  84 SE7       29.91F
CHILLICOTHE      N/A     68  67  96 CALM      29.96R

$$
MOZ066>068-077>081-088>096-101>105-200500-
...SOUTHWEST MISSOURI...

CITY           SKY/WX    TMP DP  RH WIND       PRES   REMARKS
SPRINGFIELD    PTCLDY    78  74  87 SE6       29.99S
JOPLIN         CLOUDY    82  76  81 S7        29.98R

$$
MOZ032>034-039>042-045>050-055>058-069>072-200500-
...CENTRAL MISSOURI...

CITY           SKY/WX    TMP DP  RH WIND       PRES   REMARKS
COLUMBIA       NOT AVBL
JEFFERSON CITY CLEAR     73  73 100 CALM      29.95R
ROLLA          CLEAR     72  68  87 SE3       30.00R
SEDALIA        CLEAR     74  73  97 S6        29.97R
WARRENSBURG    CLEAR     73  70  88 CALM      29.95R

$$
MOZ051-052-059>065-200500-
...EAST CENTRAL MISSOURI...

CITY           SKY/WX    TMP DP  RH WIND       PRES   REMARKS
ST LOUIS INTL  PTCLDY    78  69  73 SE6       29.96R

$$
MOZ072>076-082>087-097>100-106>115-200500-
...SOUTH CENTRAL AND SOUTHEAST MISSOURI...

CITY           SKY/WX    TMP DP  RH WIND       PRES   REMARKS
CAPE GIRARDEAU CLEAR     76  71  85 CALM      29.97R
POPLAR BLUFF   CLOUDY    77  75  93 S5        29.97R
WEST PLAINS    CLOUDY    76  70  82 S5        30.03R

$$



USA.gov is the U.S. government's official web portal to all federal, state and local government web resources and services.